www.pogodaiklimat.ru

Погода и климат >> Архив погоды >> Россия >> Иркутская область >> Жигалово


АРХИВ ПОГОДЫ в Жигалове

Время (UTC), дата Ветер
(напр.,м/с)
 
Видим.   Явления Облачность Т
(С)
Тd
(С)
f
(%)
Тe
(С)
Тes
(С)
Комфортность P
(гПа)
Po
(гПа)
Тmin
(С)
Tmax
(С)
R
(мм)
R24
(мм)
S
(см)
06 19.04 З 8-16
{20}
10 км в посл. час ливневой снег 10/8 600 м
[Cb cap Ci fib]
-3.9 -11.9 54 -12 -12 1016.3 964.0
09 19.04 З 7-14
{16}
10 км 10/8 600 м
[Cb cap Ci fib]
-3.7 -11.3 56 -11 -11 1020.4 968.2
12 19.04 З 4
{14}
10 км 8/8 600 м
[Cb cap]
-0.8 -11.0 46 -6 -6 1018.6 966.8 -0.8 0.0
15 19.04 З 2 н/о 4/4 600 м
[Cb cap]
-1.8 -11.7 47 -5 -5 1020.0 967.9
18 19.04 З 5
{14}
н/о 3/3 600 м
[Cb cap]
-3.1 -11.8 51 -9 -9 1021.8 969.3
21 19.04 З 3 н/о ясно -6.1 -12.5 60 -11 -11 1022.0 968.9
00 20.04 ЮЗ 3 50 км ясно -3.0 -14.0 42 -7 -5 1021.8 969.3 -6.6 0
03 20.04 ЮЗ 4 50 км 3/3 1000 м
[Cu hum]
+1.1 -15.7 27 -3 +2 1019.3 967.7
06 20.04 З 4
{10}
50 км 1/1 1000 м
[Cu hum]
+5.1 -18.3 17 +2 +9 1016.0 965.3
09 20.04 З 3
{13}
50 км 1/1 1000 м
[Cu hum]
+6.3 -17.0 17 +4 +8 1013.6 963.3
12 20.04 ЮЗ 1 50 км ясно +2.8 -14.5 27 +2 +2 1013.6 962.6 +6.5
15 20.04 штиль 0 н/о ясно -4.7 -10.6 63 -5 -5 1014.9 962.5
18 20.04 штиль 0 н/о 10/0
[Ci fib]
-7.3 -10.7 77 -8 -8 1014.6 961.7
21 20.04 штиль 0 н/о 8/0
[Ci fib]
-9.1 -11.6 82 -10 -10 1013.8 960.6
00 21.04 СВ 1 50 км 3/0
[Ci fib]
-4.6 -11.8 57 -6 -4 1011.9 959.7 -9.7
03 21.04 В 2 50 км 8/0
[Ac trans Cc]
+5.0 -14.1 24 +4 +10 1006.6 956.4
06 21.04 В 2 50 км 10/0
[Ac As Ci fib]
+10.8 -15.6 14 +10 +15 1002.3 953.2
09 21.04 ЮЗ 4 50 км 10/1 1000 м
[Sc Ac lent Ci fib]
+11.4 -14.6 15 +10 +11 1000.6 951.8
12 21.04 СЗ 3 50 км 10/3 1000 м
[Sc Ac trans Ci fib]
+8.0 -10.0 27 +6 +6 1002.0 952.5 +12.0
15 21.04 З 2 н/о 10/0
[Ac trans Ci fib]
+2.9 -9.7 39 +1 +1 1005.6 955.0
18 21.04 СЗ 5 н/о 10/5 600 м
[Cb cap Ac und]
+3.8 -11.0 33 -0 -0 1007.8 957.3
21 21.04 З 3 н/о 6/0
[Ac trans Ci fib]
+0.9 -10.1 44 -3 -3 1021.4 960.2
00 22.04 З 3 50 км 8/0
[Ac trans Cc]
+3.2 -9.0 40 0 +2 1013.2 962.3 -2.7
03 22.04 З 7-11
{12}
10 км 10/6 600 м
[Cb cap Ci fib]
+4.1 -9.3 37 -1 0 1014.1 963.4
06 22.04 СЗ 9-14
{16}
10 км 6/6 600 м
[Cb cap]
+5.9 -11.4 28 +1 +2 1014.9 964.4
09 22.04 СЗ 6-10
{14}
10 км 8/8 600 м
[Cb cap]
+4.2 -14.2 25 0 0 1016.3 965.4
12 22.04 СЗ 4
{12}
50 км 4/4 600 м
[Cb cap]
+0.9 -13.9 32 -3 -3 1019.2 967.6 +5.9
15 22.04 СЗ 5 н/о 3/3 600 м
[Cb cap]
-2.0 -12.0 46 -8 -8 1022.5 970.2
18 22.04 З 2 н/о 3/3 600 м
[Cb cap]
-2.7 -11.7 50 -6 -6 1023.8 971.3
21 22.04 Ю 1 н/о ясно -4.1 -11.8 55 -6 -6 1026.0 973.1
00 23.04 З 3 50 км ясно -0.2 -11.7 42 -4 -2 1027.6 975.4 -5.1
03 23.04 СЗ 4 50 км 4/4 1000 м
[Cu med, cong]
+4.0 -13.0 28 +1 +5 1027.2 975.8
06 23.04 СЗ 4 50 км 3/3 1000 м
[Cu med, cong]
+5.7 -15.2 21 +3 +9 1025.7 974.7
09 23.04 З 2 50 км 1/1 1000 м
[Cu hum]
+7.7 -17.3 15 +7 +11 1024.4 973.7
12 23.04 Ю 1 50 км ясно +5.2 -15.0 22 +5 +5 1024.5 973.4 +8.1
15 23.04 штиль 0 50 км ясно -4.2 -10.8 60 -5 -5 1027.2 974.2
18 23.04 штиль 0 н/о ясно -6.3 -10.2 74 -7 -7 1027.8 974.4
21 23.04 штиль 0 н/о ясно -8.6 -11.1 82 -9 -9 1027.5 973.7
00 24.04 В 2 50 км ясно -1.7 -10.3 52 -5 -2 1026.0 973.6 -9.0
03 24.04 С 1 50 км ясно +7.3 -13.1 22 +7 +20 опасность
простуды
1020.8 970.2
06 24.04 ЮВ 3 50 км ясно +11.9 -15.0 14 +11 +21 опасность
простуды
1016.4 966.9
09 24.04 В 2 50 км ясно +13.4 -15.1 12 +13 +18 1013.5 964.4
12 24.04 СВ 1 50 км ясно +10.0 -11.7 20 +10 +11 1013.3 963.6 +13.7
15 24.04 штиль 0 н/о ясно -1.9 -8.5 61 -3 -3 1016.4 964.4
18 24.04 штиль 0 н/о ясно -3.6 -8.9 67 -4 -4 1017.1 964.8
21 24.04 штиль 0 н/о ясно -5.5 -8.9 77 -6 -6 1018.9 966.2
00 25.04 штиль 0 50 км ясно -0.5 -7.6 59 -1 +3 1019.3 967.4 -6.6
03 25.04 СВ 1 50 км ясно +9.3 -8.7 27 +10 +22 опасность
простуды
1016.5 966.5
06 25.04 З 3 50 км 4/4 1000 м
[Cu med, cong]
+15.7 -12.8 13 +15 +22 1012.9 964.2
09 25.04 З 5 50 км 6/3 1000 м
[Cu hum Ci fib]
+16.5 -12.6 12 +16 +18 1010.1 961.6
12 25.04 штиль 0 50 км 3/0
[Ci fib]
+11.5 -10.3 21 +12 +12 1010.3 961.0 +17.0
15 25.04 штиль 0 н/о 10/0
[Ci fib]
+2.2 -6.6 52 +2 +2 1011.3 960.3
18 25.04 З 1 н/о 10/0
[Ci fib]
-0.8 -6.4 66 -2 -2 1010.7 959.2
21 25.04 СЗ 1 н/о 10/4 600 м
[Cb cap Ci fib]
+0.6 -5.6 63 -1 -1 1009.1 958.0
00 26.04 штиль 0 50 км 10/0
[Ac trans Ci fib]
+3.2 -5.6 52 +3 +5 1008.4 957.8 -0.8
03 26.04 Ю 1 50 км 10/3 1000 м
[Cb cap Ci sp]
+13.8 -7.5 22 +15 +22 1006.2 957.5

 

Местоположение метеостанции Жигалово (Иркутская область, Россия): широта 54.80 долгота 105.10 высота над уровнем моря 419 м.

В архиве по умолчанию представлена погода в Жигалове за последнюю неделю. Архивные данные за месяц целиком и за предыдущие месяцы, начиная с января 2011 года, Вы можете получить, выбрав интересующий диапазон дат из раскрывающегося списка и нажав кнопку "Ввод!".


*Определитесь, кто Вы:
робот инопланетянин человек

Внимание! Время в таблицах - всемирное. Для получения местного времени необходимо прибавить поправку, которая равна 8 ч.

Смотрите также архив погоды в соседних городах и на ближайших метеорологических станциях:

Погода в Качуге (Иркутская область, Россия) (106 км)
Погода в Тырке (Иркутская область, Россия) (127 км)
Погода в Орлинге (Иркутская область, Россия) (146 км)
Погода в Балаганске (Иркутская область, Россия) (162 км)
Погода в Караме (Иркутская область, Россия) (164 км)
Погода в Баяндае (Иркутская область, Россия) (191 км)
Погода в Заярске (Иркутская область, Россия) (213 км)
Погода в Солнечной (Иркутская область, Россия) (218 км)
Погода в Заларях (Иркутская область, Россия) (219 км)
Погода в Усть-Ордынском (Иркутская область, Россия) (223 км)

Пояснения к столбцам:

Ветер - указаны скорость ветра в м/с - средняя за 10 мин, порывы в срок и между сроками (в фигурных скобках) и направление, откуда дует ветер: С - северный, СВ - северо-восточный, В - восточный, ЮВ - юго-восточный, Ю - южный, ЮЗ - юго-западный, З - западный, СЗ - северо-западный.
Видимость - горизонтальная дальность видимости в метрах или километрах. При видимости от 1 до 10 км при отсутствии осадков обычно наблюдается дымка, при ухудшении видимости до 1 км и менее - туман. В сухую погоду видимость может ухудшаться дымом, пылью или мглою.
Явления - указаны атмосферные явления, наблюдавшиеся в срок или в последний час перед сроком; фигурными скобками обозначены явления, наблюдавшиеся между сроками (за 1-3 часа до срока); квадратными скобками обозначены град или гололедные отложения с указанием их диаметра в мм.
Облачность - указаны через наклонную черту общая и нижняя облачность в баллах и высота нижней границы облаков в метрах; квадратными скобками обозначены формы облаков: Ci - перистые, Cs - перисто-слоистые, Cc - перисто-кучевые, Ac - высококучевые, As - высокослоистые, Sc - слоисто-кучевые, Ns - слоисто-дождевые, Cu - кучевые, Cb - кучево-дождевые. Подробнее классификацию облаков см. в Атласе облаков (PDF).
T - Температура воздуха - температура, измеренная на высоте 2 м над землей.
Td - Температура точки росы - температура, при понижении до которой содержащийся в воздухе водяной пар достигнет насыщения.
f - Относительная влажность воздуха - влажноcть воздуха, измеренная на высоте 2 м над землей.
Te - Эффективная температура - температура, которую ощущает одетый по сезону человек в тени. Характеристика душности погоды. При расчете учитывается влияние влажности воздуха и скорости ветра на теплоощущения человека.
Tes - Эффективная температура на солнце - температура, которую ощущает человек, с поправкой на солнечный нагрев. Характеристика знойности погоды. Зависит от высоты солнца над горизонтом, облачности и скорости ветра. Ночью, в пасмурную погоду, а также при ветре 12 м/с и более поправка равна нулю.
P - Атмосферное давление - приведенное к уровню моря атмосферное давление.
Po - Атмосферное давление - измеренное на уровне метеостанции атмосферное давление.
Tmin - Минимальная температура - минимум температуры воздуха на высоте 2 м над землей.
Tmax - Максимальная температура - максимум температуры воздуха на высоте 2 м над землей.
R - Количество осадков - Количество выпавших осадков за период времени, мм. При наведении курсора мыши на число - период времени, за который выпало указанное количество осадков.
R24 - Количество осадков - Количество выпавших осадков за 24 часа, мм.
S - Снежный покров - Высота снежного покрова, см. При наведении курсора мыши на число - состояние снежного покрова и степень покрытия местности в баллах.